This is the latest recevied weather packets stored in our database for station/object K6HFP. If no packets are shown the sender has not sent any weather packets the latest 10 day(s).
| Time | Temp. | Humidity | Pressure | Rain* | Wind** | Luminosity | Snow |
|---|---|---|---|---|---|---|---|
| 1777682625 | 25° C | 51% | 1010 hPa | 0 mm | - | 226 W/m² | - |
| 1777682323 | 25.56° C | 48% | 1010.1 hPa | 0 mm | - | 221 W/m² | - |
| 1777682020 | 26.11° C | 44% | 1010.2 hPa | 0 mm | - | 227 W/m² | - |
| 1777681716 | 26.67° C | 46% | 1010 hPa | 0 mm | - | 262 W/m² | - |
| 1777681414 | 26.67° C | 41% | 1010.2 hPa | 0 mm | - | 292 W/m² | - |
| 1777681111 | 27.22° C | 43% | 1010.1 hPa | 0 mm | - | 326 W/m² | - |
| 1777680809 | 27.22° C | 41% | 1010.1 hPa | 0 mm | - | 359 W/m² | - |
| 1777680506 | 27.22° C | 42% | 1010.1 hPa | 0 mm | - | 363 W/m² | - |
| 1777680204 | 27.22° C | 42% | 1010.3 hPa | 0 mm | - | 341 W/m² | - |
| 1777679900 | 26.67° C | 44% | 1010.1 hPa | 0 mm | - | 408 W/m² | - |
| 1777679596 | 26.67° C | 44% | 1010.4 hPa | 0 mm | - | 330 W/m² | - |
| 1777679291 | 27.22° C | 41% | 1010.4 hPa | 0 mm | - | 490 W/m² | - |
| 1777678989 | 27.22° C | 41% | 1010.5 hPa | 0 mm | - | 559 W/m² | - |
| 1777678687 | 26.67° C | 42% | 1010.3 hPa | 0 mm | - | 571 W/m² | - |
| 1777678384 | 26.67° C | 42% | 1010.5 hPa | 0 mm | - | 598 W/m² | - |
| 1777678079 | 27.22° C | 41% | 1010.4 hPa | 0 mm | - | 618 W/m² | - |
| 1777677776 | 26.11° C | 41% | 1010.7 hPa | 0 mm | - | 527 W/m² | - |
| 1777677474 | 26.11° C | 43% | 1010.7 hPa | 0 mm | - | 439 W/m² | - |
| 1777677172 | 26.11° C | 43% | 1010.6 hPa | 0 mm | - | 461 W/m² | - |
| 1777676870 | 26.11° C | 47% | 1010.6 hPa | 0 mm | - | 371 W/m² | - |
| 1777676569 | 26.11° C | 45% | 1010.7 hPa | 0 mm | - | 344 W/m² | - |
| 1777676266 | 26.67° C | 43% | 1010.8 hPa | 0 mm | - | 439 W/m² | - |
| 1777675963 | 26.11° C | 44% | 1010.9 hPa | 0 mm | - | 549 W/m² | - |
| 1777675659 | 26.11° C | 47% | 1011 hPa | 0 mm | - | 394 W/m² | - |
| 1777675357 | 25.56° C | 44% | 1011.3 hPa | 0 mm | - | 493 W/m² | - |
* Rain latest hour (hover to see other rain measurements)
** Current wind speed in m/s (hover to see current wind gust speed)